STARLINK-30521, 57966

Orbit data source: Space-Track

STARLINK-30521, 57966 is a payload satellite owned by SpaceX/Seattle (US) in LEO that was launched on Sat, 30 Sep 2023 UTC via an FALCON 9 launch vehicle from the Air Force Eastern Test Range (AFETR). Payload-class satellites include a variety of spacecraft equipped with specific instruments for various scientific and technological missions. These include communications satellites like Starlink; space stations such as the ISS; scientific satellites like the Hubble; Earth observation satellites from companies like Planet Labs, Umbra, and HawkEye 360; GPS; miniature CubeSats for education and research; and military/defense satellites.

Loading next visibility...
Identifier
57966, 2023-151C
Orbit
LEO
Country
Flag of USUS
Related business
Manufacturer
SpaceX/Seattle
Mission
Operational Commercial Communications
Bus & Motor
STARLINK V2M, Unknown motor
Mass
730 kg wet, ~700 kg dry
Launch date (UTC)
2023-09-30 (3 years ago)
Launch vehicle
FALCON 9
Launch site
Air Force Eastern Test Range (AFETR)
Object type
Payload
Rocket body
Debris
Shape & HBR
Box + 2 Pan, 17.7 m
Radar Cross Section
33.884 m², Large (>1 m²)

Expand to show TLE details & history
Last TLE update: 1 day ago

TLE from 1 day ago
0 STARLINK-30521
1 57966U 23151C   26236.37102244  .00001173  00000-0  52138-4 0  9992
2 57966  43.0057 108.8151 0001731 258.3731 101.6927 15.27582027161417
Epoch: 2026-08-24T08:54Z
TLE epoch observation values (Epoch: 2026-08-24T08:54:16.338Z)
Latitude
Longitude
2.59334°
Altitude
483.06 km
Speed
7.626 km/s
True Right ascension
07h 15m 15s
True Declination
0° 00' 00"
Sunlit
Object was in daylight at epoch
Visualization orbit readout
Latitude
Unknown
Longitude
Unknown
Altitude
Unknown
Speed
Unknown
Apparent Right ascension
Unknown
Apparent Declination
Unknown
Sunlit
N/A
Visualization observer readout
Local Sidereal Time
02:30:37
Azimuth
Unknown
Elevation
Unknown
Doppler factor
Unknown
Orbital elements
Apogee altitude
486.175 km
Perigee altitude
483.799 km
Semi-major axis
6,863.124 km
Eccentricity
0.00017
Inclination
43.0057°
RAAN
108.8151°
Arg. of periapsis
258.3731°
True anomaly
101.71212°
Mean anomaly
101.6927°
Eccentric anomaly
101.70241°
Mean motion
3.81734 °/min
Orbital period
94.31 mins
BSTAR
0.000052138
Loading maneuver chart data...
Computing Atmospheric mass density...
Loading historical data...
Loading historical data...
Loading historical data...
Loading historical data...
Loading historical data...
Loading historical data...
Loading historical data...

Documentation

Showing up to 5 results
|